Theta_e
312 313 313 312 313 313 313 313 312 311 310 308 308 307 305 304 303 301 300 299 298 298 297 297 296 297 296 296 295 294 293 292 286 288 288 286 286 285 284 283 282 283 281
310 312 312 312 312 311 312 312 312 310 309 308 307 306 305 304 302 302 300 300 298 297 297 297 297 298 295 296 294 293 292 291 287 286 286 286 285 285 284 283 282 283 280
308 309 310 311 310 310 310 311 311 309 308 307 306 304 304 303 301 301 301 300 299 298 298 297 297 296 295 295 294 293 291 291 287 286 285 285 285 280 279 281 280 279 283
306 307 308 310 310 310 310 310 310 309 307 305 305 304 303 302 302 301 301 300 299 299 299 298 297 296 295 294 293 291 289 287 286 286 285 284 282 282 278 277 278 278 278
302 303 305 306 309 308 308 308 308 308 306 304 303 303 302 302 302 301 300 299 298 297 295 295 295 294 292 294 293 290 287 286 286 285 284 282 279 279 277 276 278 279 279
299 300 301 302 304 306 306 306 306 305 303 302 300 300 300 300 297 297 298 297 296 294 293 292 291 289 291 292 292 292 289 286 285 284 282 283 278 278 276 279 278 278 277
297 297 298 299 300 302 304 304 303 302 301 299 299 298 298 298 295 296 294 296 294 293 292 290 289 289 288 290 291 291 290 290 289 285 285 282 279 280 280 280 280 279 278
296 296 296 296 297 297 299 300 300 300 298 298 297 297 296 294 295 294 292 294 293 291 290 289 288 287 287 288 287 286 286 286 287 285 285 283 282 282 282 281 280 280 280
295 295 295 296 295 295 295 296 297 297 295 295 295 294 293 292 293 293 293 291 289 288 288 288 287 287 288 289 286 284 283 284 289 288 288 288 287 287 283 281 278 275 273
295 295 294 295 294 294 294 294 294 294 292 291 291 293 290 291 292 293 292 289 287 286 286 286 286 287 289 288 284 284 282 283 284 284 285 285 285 285 285 281 279 274 273
293 291 291 291 290 293 291 289 290 289 288 289 288 289 290 291 291 292 291 289 287 286 285 285 286 289 289 288 287 285 284 284 285 282 282 281 281 280 280 280 279 277 273
290 289 288 288 289 289 288 287 287 287 287 287 287 286 287 288 290 291 291 290 290 286 285 285 286 288 289 288 286 287 287 285 282 280 279 278 279 278 278 278 280 278 278
288 288 287 286 287 287 287 286 287 287 287 286 286 285 285 287 288 290 290 290 289 286 286 286 288 288 289 288 288 287 283 282 280 279 278 275 276 276 274 273 271 270 270
287 287 287 287 286 287 287 288 287 287 287 286 286 285 285 286 286 287 287 287 286 286 287 287 287 287 286 286 285 284 282 282 281 279 278 275 274 272 271 272 271 269 268
286 286 286 286 286 286 286 287 287 288 288 287 287 286 285 284 286 287 287 285 286 286 286 285 284 283 282 282 281 278 279 281 280 277 278 277 278 272 271 269 268 266 266
285 285 285 286 286 286 286 286 289 289 289 289 289 288 286 288 288 288 288 288 288 287 285 283 282 281 281 280 279 279 275 277 278 277 276 274 275 278 276 274 270 265 265
286 285 285 285 285 285 285 285 284 287 289 289 289 289 289 288 288 288 288 288 288 287 284 282 281 280 280 279 279 279 278 277 276 278 279 280 278 277 275 277 278 277 275
286 286 286 286 286 286 285 285 285 284 284 285 288 288 288 288 288 288 288 288 285 285 283 282 281 280 279 279 279 279 279 278 278 278 279 278 277 276 275 275 275 275 275
286 286 286 286 286 286 285 285 285 284 284 284 285 287 287 288 288 288 288 285 283 283 282 281 281 280 279 279 279 278 278 278 278 279 278 277 277 276 276 276 275 276 275
286 286 286 286 285 285 285 284 284 284 283 283 284 284 285 285 284 284 285 284 283 283 282 281 281 281 280 279 279 278 278 277 277 277 277 277 277 277 275 275 273 275 273
286 286 286 286 285 285 285 285 285 284 283 283 283 284 286 284 284 284 284 283 283 283 281 281 281 280 280 279 278 278 277 277 277 277 277 276 276 275 276 273 275 275 275
286 286 285 285 285 285 285 285 284 284 283 283 283 284 286 284 284 284 284 283 284 283 282 281 280 280 280 279 278 278 277 277 276 276 274 273 273 271 271 275 275 274 273
285 285 285 285 285 285 285 285 284 284 283 283 283 283 284 283 283 283 284 284 283 281 282 281 280 279 279 279 279 278 277 276 276 276 274 274 273 275 274 274 274 272 273
285 285 285 285 285 285 284 284 284 284 284 284 283 284 284 284 284 284 283 282 280 281 281 280 280 279 278 278 278 278 277 275 276 276 274 274 276 276 275 269 265 261 260
285 285 285 284 284 284 284 284 284 284 284 284 283 283 284 284 284 283 282 281 281 280 279 279 279 278 278 277 278 277 277 278 276 276 278 277 275 269 264 261 261 258 258
285 285 284 284 284 284 284 283 283 284 284 284 284 284 284 284 283 282 281 280 280 279 278 277 277 277 276 275 275 273 277 277 274 271 267 267 265 261 258 259 259 257 257
Wind_Speed
16 17 19 19 18 17 16 16 14 13 13 15 16 16 16 16 15 14 12 13 12 11 9 9 9 7 5 5 4 3 4 4 3 0 3 2 3 4 3 3 3 4 2
12 15 16 18 17 17 16 17 15 14 14 15 15 15 16 17 16 15 15 14 14 13 11 11 10 8 7 7 5 5 5 4 4 4 2 1 2 1 1 0 2 2 2
10 13 14 17 18 18 17 16 15 15 14 15 15 16 16 17 18 16 15 14 14 13 13 12 11 10 9 7 7 6 5 4 3 4 3 2 1 1 2 1 1 1 3
8 11 14 15 17 15 15 15 14 15 15 16 15 15 15 16 15 16 15 13 13 12 12 12 12 12 11 10 9 9 7 7 3 5 3 3 2 2 2 2 3 3 3
7 8 12 11 14 13 14 14 13 15 14 14 14 13 13 14 13 16 15 14 13 11 10 10 9 10 11 12 9 9 11 8 7 6 4 2 2 2 2 2 1 1 2
7 8 8 8 10 13 13 14 14 14 14 14 14 13 13 10 16 20 17 14 13 13 12 8 8 10 11 15 13 16 14 13 11 6 4 5 3 3 2 2 2 2 2
7 7 7 8 11 11 12 13 14 14 13 15 14 15 16 13 22 24 21 14 14 13 13 10 8 7 9 10 15 16 13 15 11 6 10 5 5 5 5 4 3 2 2
7 7 7 8 9 9 11 13 13 13 14 14 14 15 13 11 22 21 20 15 13 13 13 13 12 12 11 13 12 10 8 6 6 4 6 6 5 6 4 4 4 4 3
9 9 9 10 10 11 13 13 12 11 11 12 12 14 15 10 25 23 15 10 11 11 11 12 13 12 17 20 14 13 10 6 10 15 14 14 13 10 6 4 2 3 1
10 9 7 10 11 12 12 12 11 11 11 9 10 12 12 14 23 23 17 11 11 9 9 10 15 15 23 22 15 15 13 11 11 11 9 10 8 7 8 4 3 3 2
7 8 8 8 8 10 9 6 9 8 9 10 10 9 12 15 17 23 23 13 11 10 10 10 9 23 23 21 17 12 12 12 14 9 7 5 4 4 3 2 2 3 3
8 8 7 7 6 7 10 8 10 11 11 11 11 8 6 10 19 20 20 17 19 13 12 9 11 24 22 21 14 17 23 15 8 7 6 4 5 3 3 3 4 0 2
8 8 6 7 8 9 11 11 10 11 11 10 10 10 9 8 10 19 17 20 18 11 9 14 23 23 21 16 18 22 16 9 8 8 7 3 3 3 4 3 1 1 1
9 9 9 10 10 8 7 9 9 10 10 10 10 10 9 9 10 9 10 11 16 12 18 16 17 15 13 12 13 12 7 8 8 7 6 3 3 3 2 2 2 1 2
10 9 8 7 10 9 7 7 9 9 11 13 11 12 14 12 11 15 16 11 10 14 15 12 11 10 10 8 7 5 5 7 7 4 6 5 4 3 2 1 1 1 2
11 9 8 8 8 8 8 6 7 8 12 13 16 13 7 14 23 22 21 23 23 25 12 12 11 10 11 10 10 8 4 7 6 6 5 4 5 6 4 2 2 2 2
11 11 9 9 8 9 9 9 9 8 12 15 18 17 18 21 25 24 24 25 29 24 10 10 10 11 10 10 9 9 8 5 5 6 6 6 5 6 5 5 5 4 3
10 13 10 9 8 8 9 9 8 9 10 9 14 14 20 25 25 26 26 24 15 11 9 11 11 11 10 9 9 8 8 7 7 7 7 6 6 6 6 6 5 5 3
9 9 9 8 8 8 8 8 8 8 8 8 9 11 18 25 25 26 28 11 13 11 10 10 10 10 9 9 8 8 9 8 8 7 7 6 7 7 7 6 4 5 5
9 12 11 9 10 9 8 9 9 9 9 8 8 9 11 16 14 14 13 10 10 9 9 9 9 9 10 10 9 9 8 8 7 7 7 6 7 7 6 5 4 4 4
8 9 12 8 9 10 9 8 7 8 8 8 8 9 16 11 11 11 10 9 9 9 8 9 9 10 10 10 10 9 9 8 8 9 8 8 8 7 6 4 4 4 6
8 9 9 9 8 10 9 9 8 8 9 8 7 10 22 7 9 9 9 8 8 9 8 9 8 9 9 11 11 10 10 10 9 9 8 7 7 5 4 6 5 6 6
9 9 9 9 9 10 10 9 10 10 10 10 9 10 11 9 9 9 9 8 8 9 8 9 10 9 8 9 10 11 12 11 11 10 9 9 7 7 6 7 8 6 7
9 10 9 8 9 10 9 10 10 12 11 10 10 10 10 9 8 10 9 8 7 8 8 9 9 12 11 10 9 9 8 7 8 10 11 8 7 9 9 4 3 4 3
8 8 9 9 9 9 9 9 9 10 11 11 11 10 10 9 8 8 9 9 9 8 9 9 8 12 15 16 14 13 11 13 10 8 8 9 10 7 5 3 4 3 4
8 8 7 7 8 8 9 9 9 9 9 9 9 10 10 10 9 9 9 10 9 9 9 8 10 15 14 11 12 11 13 12 9 9 6 6 6 5 4 4 5 3 4
Wind_Direction
196 197 202 205 204 206 206 204 194 183 182 187 183 183 177 177 176 176 177 174 175 174 175 176 182 175 173 168 163 149 153 133 128 41 99 106 82 40 11 14 44 54 3
194 195 199 204 202 206 205 204 191 185 179 182 186 186 182 177 177 181 174 176 178 179 176 176 181 180 170 165 160 166 149 135 117 136 113 121 103 46 239 341 92 65 53
188 193 196 201 202 207 203 201 193 186 176 180 180 187 187 184 169 182 181 177 179 178 178 178 176 175 176 176 165 157 136 129 115 137 125 127 155 39 333 10 118 47 29
185 189 196 199 203 200 202 200 195 186 176 178 181 181 191 180 175 173 176 172 175 176 174 177 177 178 181 161 175 148 135 134 139 130 115 128 168 196 100 98 11 43 5
189 189 196 193 202 197 196 196 189 189 177 174 173 180 185 180 175 171 172 171 168 163 158 169 170 171 166 173 160 154 146 140 158 149 147 131 146 82 134 223 131 119 24
191 195 184 180 188 196 190 191 184 188 169 168 171 173 182 181 176 166 164 166 163 161 160 159 155 144 172 156 138 155 157 153 163 158 163 159 164 142 165 158 149 111 200
188 193 193 184 184 182 180 179 185 182 166 172 174 174 177 182 176 166 163 161 157 161 159 151 149 138 146 142 142 146 153 158 171 150 156 162 142 173 155 157 156 144 152
192 193 188 183 180 175 172 176 183 177 170 176 178 180 177 175 172 169 159 154 157 157 157 159 152 151 152 141 137 130 137 140 148 135 134 134 132 148 165 154 152 133 89
189 197 191 181 177 178 179 177 179 174 176 179 178 174 167 164 164 158 147 143 143 144 152 150 151 153 153 147 141 141 129 125 127 125 124 127 135 152 150 125 159 124 239
190 191 180 177 180 183 179 174 176 173 167 155 167 171 160 156 162 159 147 139 139 143 138 145 154 153 157 154 148 151 145 152 141 132 130 124 122 121 103 135 170 148 140
169 170 171 172 172 175 163 153 157 147 142 156 150 146 150 155 163 159 154 154 152 151 152 155 160 157 157 154 155 156 154 144 145 133 131 133 131 123 107 82 69 136 141
157 157 164 158 153 149 144 137 142 143 144 145 137 124 127 148 158 159 157 152 157 155 159 156 154 158 156 154 146 149 146 143 136 136 143 151 149 150 157 149 174 266 79
141 140 139 129 128 138 147 148 142 147 151 151 148 143 141 144 151 154 149 150 151 143 148 148 151 152 150 147 151 151 147 146 144 150 160 158 155 144 121 115 80 80 62
142 146 143 142 136 142 151 160 159 158 155 157 151 146 146 151 151 150 143 139 132 126 133 136 147 141 131 132 141 147 153 153 154 159 149 131 115 113 134 160 170 174 105
146 146 148 146 146 148 157 167 168 172 169 163 165 159 159 166 165 157 148 145 150 146 137 137 141 142 138 145 141 139 144 146 151 144 147 145 156 135 136 138 104 79 136
150 155 158 154 152 150 141 126 115 142 149 151 153 156 149 149 151 153 149 144 144 143 143 150 151 154 159 163 162 155 143 154 154 142 138 134 153 168 159 150 139 139 154
160 156 154 154 156 154 147 147 138 120 131 141 149 153 151 152 152 149 150 149 152 151 156 162 164 168 167 168 169 168 169 162 140 150 156 152 158 168 167 186 194 207 236
162 160 158 156 155 158 149 146 150 153 153 153 152 150 147 152 154 155 152 146 158 170 164 169 173 171 167 170 170 166 164 156 158 155 150 157 165 172 179 191 196 203 223
159 161 156 150 145 150 146 143 150 151 146 142 140 146 153 155 156 159 161 165 170 174 170 171 169 167 167 165 163 157 159 162 161 155 149 159 179 185 193 196 189 196 214
162 161 157 155 146 145 148 151 154 145 141 149 157 157 154 152 163 170 175 171 175 179 171 169 164 164 162 158 154 153 151 154 156 158 167 167 185 195 201 195 191 207 219
160 155 157 154 158 153 154 156 166 154 154 161 159 162 165 165 171 176 176 176 175 174 173 170 164 160 156 154 152 155 156 161 168 177 179 176 186 196 202 200 199 216 237
157 160 159 159 159 153 156 142 148 148 145 153 154 164 170 173 172 174 179 180 176 175 169 161 162 163 162 162 158 158 161 170 176 178 175 172 176 176 187 207 216 227 233
158 160 162 159 158 159 157 161 156 160 158 159 158 164 174 179 176 181 185 180 170 160 160 160 160 159 159 163 165 165 170 181 181 174 172 177 179 185 197 215 225 217 233
162 166 166 163 162 163 165 164 166 165 159 162 164 171 177 182 184 182 170 164 159 159 167 166 167 163 161 165 164 166 169 163 165 171 169 173 184 201 208 194 177 188 178
162 166 167 164 164 172 165 167 170 173 168 168 167 169 176 178 180 171 167 166 167 168 167 164 162 165 167 167 169 169 164 167 170 166 177 190 197 168 165 165 176 191 189
161 163 169 169 170 168 168 165 165 168 169 172 170 172 179 182 176 165 167 168 172 174 169 169 166 170 169 166 160 151 165 169 152 149 147 152 155 155 148 169 189 186 194